sat.trackr.live / text

‹ back to catalog

STARLINK-37335

NORAD 68785 · 2026-086V

PAYLOAD ACTIVE UNKNOWN

§ Identity

Operator
Country
US
Launch date
2026-04-19
Launch site
AFWTR
Launch vehicle
Mass (kg)
RCS (m²)

Purposes: comms

External: N2YO · Heavens-Above · Gunter

§ Orbital elements

Epoch: 2026-05-25T00:33:35.141760Z

Period
91.35 min
Inclination
97.2856°
Eccentricity
0.0001788
Mean motion
15.76321383 rev/d
Perigee alt
339.7 km
Apogee alt
342.1 km
Semi-major
6,719.0 km
B*
1.7243e-3
RAAN
181.9167°
Arg perigee
266.0753°
Mean anomaly
94.0308°
Rev number
551

§ Raw data

STARLINK-373351 68785U 26086V   26145.02332340  .00279013  00000+0  17243-2 0  99912 68785  97.2856 181.9167 0001788 266.0753  94.0308 15.76321383  5513

JSON: /api/v1/satellites/68785 · /tle

For live sub-satellite position, see the globe view (requires WebGL).

§ Visibility from observer

Set your observer location to see the next 7 days of passes ≥ 10°. The values pass through the URL so the page stays shareable.

No JS? Fill the form by hand. The geolocation button needs JavaScript.